VE7EOZ-10 Weather Reports


time (UTC)temp
F
wind
direction
speed
knots
gust
knots
rain 1hr
in
rain 24hr
in
rain mn
in
humidity
%
barometer
mb
20260505093030 42 65 0.0 0.0 0.00 0.00 0.00 71 1016.8
20260505092529 42 65 0.0 0.0 0.00 0.00 0.00 71 1016.8
20260505092028 42 65 0.0 0.0 0.00 0.00 0.00 70 1016.8
20260505091533 42 65 0.0 0.0 0.00 0.00 0.00 70 1016.8
20260505091027 42 65 0.0 0.0 0.00 0.00 0.00 70 1016.8
20260505090526 42 65 0.0 0.0 0.00 0.00 0.00 71 1016.8
20260505090032 42 65 0.0 0.0 0.00 0.00 0.00 70 1016.8
20260505085526 43 65 0.0 0.0 0.00 0.00 0.00 70 1016.8
20260505085025 43 65 0.0 0.0 0.00 0.00 0.00 70 1016.8
20260505084526 43 65 0.0 0.0 0.00 0.00 0.00 70 1016.8
20260505084024 42 65 0.0 0.0 0.00 0.00 0.00 70 1016.7
20260505083524 42 65 0.0 0.0 0.00 0.00 0.00 69 1016.7
20260505083027 42 65 0.0 0.0 0.00 0.00 0.00 69 1016.7
20260505082523 42 65 0.0 0.0 0.00 0.00 0.00 69 1016.7
20260505082023 42 65 0.0 0.0 0.00 0.00 0.00 69 1016.6
20260505081528 42 65 0.0 0.0 0.00 0.00 0.00 68 1016.6
20260505081026 42 65 0.0 0.0 0.00 0.00 0.00 68 1016.6
20260505080520 43 65 0.0 0.0 0.00 0.00 0.00 67 1016.6
20260505080030 43 65 0.0 0.0 0.00 0.00 0.00 68 1016.5
20260505075518 43 65 0.0 0.0 0.00 0.00 0.00 67 1016.6
20260505075018 43 65 0.0 0.0 0.00 0.00 0.00 68 1016.6
20260505074517 44 65 0.0 0.0 0.00 0.00 0.00 68 1016.6
20260505074016 44 65 0.0 0.0 0.00 0.00 0.00 67 1016.5
20260505073515 44 65 0.0 0.0 0.00 0.00 0.00 66 1016.6
20260505073017 44 65 0.0 0.0 0.00 0.00 0.00 66 1016.5
20260505072513 44 65 0.0 0.0 0.00 0.00 0.00 66 1016.4
20260505072011 45 65 0.0 0.0 0.00 0.00 0.00 64 1016.5
20260505071511 45 65 0.0 0.0 0.00 0.00 0.00 64 1016.3
20260505071014 45 65 0.0 0.0 0.00 0.00 0.00 65 1016.3
20260505070510 45 65 0.0 0.0 0.00 0.00 0.00 65 1016.2
20260505070008 46 65 0.0 0.0 0.00 0.00 0.00 64 1016.2
20260505065607 46 65 0.0 0.0 0.00 0.00 0.00 64 1016.2
20260505065007 46 65 0.0 0.0 0.00 0.00 0.00 63 1016.1
20260505064507 46 65 0.0 0.0 0.00 0.00 0.00 62 1016.0
20260505064007 47 65 0.0 0.0 0.00 0.00 0.00 61 1016.1
20260505063507 47 65 0.0 0.0 0.00 0.00 0.00 61 1016.0
20260505063007 47 65 0.0 0.0 0.00 0.00 0.00 61 1016.0
20260505062507 48 65 0.0 0.0 0.00 0.00 0.00 61 1016.0
20260505062007 48 65 0.0 0.0 0.00 0.00 0.00 59 1016.0
20260505061506 48 65 0.0 0.0 0.00 0.00 0.00 57 1016.1
20260505061009 48 65 0.0 0.0 0.00 0.00 0.00 58 1016.0
20260505060505 49 65 0.0 0.0 0.00 0.00 0.00 59 1016.0
20260505060005 49 65 0.0 0.0 0.00 0.00 0.00 58 1016.1
20260505055506 49 65 0.0 0.0 0.00 0.00 0.00 57 1016.0
20260505055005 50 65 0.0 0.0 0.00 0.00 0.00 58 1015.9
20260505054505 50 65 0.0 0.0 0.00 0.00 0.00 58 1015.9
20260505054008 50 65 0.0 0.0 0.00 0.00 0.00 57 1015.9
20260505053504 51 65 0.0 0.0 0.00 0.00 0.00 56 1015.9
20260505053004 51 65 0.0 0.0 0.00 0.00 0.00 55 1015.8
20260505052504 51 65 0.0 0.0 0.00 0.00 0.00 56 1015.8
20260505052005 52 65 0.0 0.0 0.00 0.00 0.00 56 1015.8
20260505051504 52 65 0.0 0.0 0.00 0.00 0.00 55 1015.9
20260505051004 52 65 0.0 0.0 0.00 0.00 0.00 55 1015.8
20260505050506 53 65 0.0 0.0 0.00 0.00 0.00 53 1015.8
20260505041502 58 65 0.0 0.0 0.00 0.00 0.00 47 1015.5
20260505041002 58 65 0.0 0.0 0.00 0.00 0.00 47 1015.4
20260505040502 59 65 0.0 0.0 0.00 0.00 0.00 46 1015.4
20260505040002 59 65 0.0 0.0 0.00 0.00 0.00 45 1015.3
20260505035501 60 65 0.0 0.0 0.00 0.00 0.00 44 1015.3
20260505035001 60 65 0.0 0.0 0.00 0.00 0.00 43 1015.3
20260505034501 61 65 0.0 0.0 0.00 0.00 0.00 43 1015.3
20260505034001 61 65 0.0 0.0 0.00 0.00 0.00 41 1015.2
20260505033501 62 65 0.0 0.0 0.00 0.00 0.00 41 1015.2
20260505033001 62 65 0.0 0.0 0.00 0.00 0.00 39 1015.1
20260505032501 63 65 0.0 0.0 0.00 0.00 0.00 39 1015.1
20260505032003 63 65 0.0 0.9 0.00 0.00 0.00 38 1015.1
20260505031500 64 65 0.0 0.9 0.00 0.00 0.00 37 1015.1
20260505031105 64 65 0.0 0.0 0.00 0.00 0.00 37 1015.0
20260505030600 64 65 0.0 1.7 0.00 0.00 0.00 37 1014.9
20260505030100 65 65 0.0 3.5 0.00 0.00 0.00 38 1014.9
20260505025601 65 65 0.0 3.5 0.00 0.00 0.00 36 1014.9
20260505025102 66 11 0.0 0.0 0.00 0.00 0.00 36 1014.9
20260505024559 66 11 0.0 0.9 0.00 0.00 0.00 35 1014.9
20260505024059 66 11 0.0 0.9 0.00 0.00 0.00 34 1014.9
20260505023559 67 11 0.0 1.7 0.00 0.00 0.00 34 1014.9
20260505023104 67 11 0.0 2.6 0.00 0.00 0.00 35 1014.8
20260505022559 67 43 0.0 3.5 0.00 0.00 0.00 33 1014.8
20260505022059 67 21 0.0 2.6 0.00 0.00 0.00 32 1014.8
20260505021559 68 327 0.0 2.6 0.00 0.00 0.00 34 1014.8
20260505021057 68 358 0.0 1.7 0.00 0.00 0.00 32 1014.8
20260505020557 68 2 0.0 2.6 0.00 0.00 0.00 33 1014.8
20260505020058 68 2 0.0 3.5 0.00 0.00 0.00 32 1014.8
20260505015559 69 327 1.7 3.5 0.00 0.00 0.00 31 1014.8
20260505015056 69 329 1.7 3.5 0.00 0.00 0.00 30 1014.9
20260505014556 69 11 0.0 2.6 0.00 0.00 0.00 31 1014.9
20260505014101 69 8 0.0 3.5 0.00 0.00 0.00 31 1014.9
20260505013556 69 323 0.0 4.3 0.00 0.00 0.00 31 1014.9
20260505013100 70 308 0.0 4.3 0.00 0.00 0.00 31 1015.0
20260505012555 70 92 0.0 4.3 0.00 0.00 0.00 29 1015.0
20260505012056 70 341 0.0 5.2 0.00 0.00 0.00 29 1015.0
20260505011558 70 3 0.0 5.2 0.00 0.00 0.00 30 1015.1
20260505011056 70 329 0.0 5.2 0.00 0.00 0.00 29 1015.1
20260505010553 70 351 0.9 7.8 0.00 0.00 0.00 29 1015.1
20260505010053 70 279 2.6 8.7 0.00 0.00 0.00 29 1015.2
20260505005553 70 338 2.6 8.7 0.00 0.00 0.00 28 1015.1
20260505005053 71 351 0.0 4.3 0.00 0.00 0.00 27 1015.2
20260505004553 71 28 1.7 7.0 0.00 0.00 0.00 27 1015.3
20260505004052 71 284 1.7 4.3 0.00 0.00 0.00 28 1015.2
20260505003552 71 304 0.9 7.0 0.00 0.00 0.00 28 1015.2
20260505003055 71 358 2.6 8.7 0.00 0.00 0.00 27 1015.3
20260505002555 71 326 0.9 4.3 0.00 0.00 0.00 28 1015.3
20260505002054 71 351 0.0 5.2 0.00 0.00 0.00 28 1015.3
20260505001554 71 46 0.9 7.0 0.00 0.00 0.00 28 1015.3
20260505001050 71 333 2.6 7.8 0.00 0.00 0.00 28 1015.5
20260505000549 71 322 1.7 7.8 0.00 0.00 0.00 28 1015.4
20260505000055 71 358 0.9 3.5 0.00 0.00 0.00 29 1015.4
20260504235549 71 342 0.9 5.2 0.00 0.00 0.00 29 1015.5
20260504235050 71 294 0.0 5.2 0.00 0.00 0.00 30 1015.5
20260504234600 71 294 0.0 5.2 0.00 0.00 0.00 28 1015.5
20260504234047 71 323 2.6 7.0 0.00 0.00 0.00 28 1015.6
20260504233547 71 337 0.0 7.0 0.00 0.00 0.00 29 1015.6
20260504233047 71 239 0.0 7.0 0.00 0.00 0.00 29 1015.6
20260504232548 71 338 0.0 4.3 0.00 0.00 0.00 29 1015.6
20260504232046 71 308 0.0 7.8 0.00 0.00 0.00 30 1015.6
20260504231558 71 69 0.9 5.2 0.00 0.00 0.00 30 1015.7
20260504231046 71 319 1.7 5.2 0.00 0.00 0.00 29 1015.8
20260504230544 71 340 2.6 5.2 0.00 0.00 0.00 29 1015.7
20260504230045 71 334 0.9 6.1 0.00 0.00 0.00 30 1015.8
20260504225545 71 302 1.7 7.0 0.00 0.00 0.00 30 1015.8
20260504225044 71 284 1.7 6.1 0.00 0.00 0.00 30 1015.8
20260504224543 71 335 1.7 6.1 0.00 0.00 0.00 29 1015.9
20260504224043 71 315 1.7 5.2 0.00 0.00 0.00 29 1015.8
20260504223545 71 17 0.9 4.3 0.00 0.00 0.00 31 1015.8
20260504223044 70 15 0.9 6.1 0.00 0.00 0.00 30 1015.9
20260504222545 71 3 0.9 6.1 0.00 0.00 0.00 30 1016.0
20260504222044 71 303 1.7 7.0 0.00 0.00 0.00 30 1015.8
20260504221550 71 221 1.7 6.1 0.00 0.00 0.00 31 1016.0
20260504221043 71 315 0.9 6.1 0.00 0.00 0.00 31 1016.0
20260504220542 71 331 2.6 6.1 0.00 0.00 0.00 31 1016.0
20260504220042 71 324 0.0 4.3 0.00 0.00 0.00 31 1016.1
20260504215542 71 330 1.7 5.2 0.00 0.00 0.00 30 1016.1
20260504215041 71 39 1.7 5.2 0.00 0.00 0.00 30 1016.2
20260504214540 71 273 0.0 2.6 0.00 0.00 0.00 30 1016.2
20260504214039 71 319 0.0 5.2 0.00 0.00 0.00 31 1016.4
20260504213539 70 300 1.7 5.2 0.00 0.00 0.00 31 1016.4
20260504213038 70 348 0.9 4.3 0.00 0.00 0.00 31 1016.4
20260504212538 70 321 0.9 6.1 0.00 0.00 0.00 31 1016.5
20260504212038 70 323 0.9 7.8 0.00 0.00 0.00 31 1016.5
20260504211547 70 345 2.6 7.8 0.00 0.00 0.00 32 1016.5
20260504211037 69 335 0.0 4.3 0.00 0.00 0.00 34 1016.5
20260504210536 69 335 0.9 6.1 0.00 0.00 0.00 32 1016.7
20260504210051 69 284 1.7 6.1 0.00 0.00 0.00 32 1016.7
20260504205537 69 356 1.7 7.0 0.00 0.00 0.00 32 1016.7
20260504205039 69 360 0.0 7.0 0.00 0.00 0.00 34 1016.7
20260504204541 69 335 1.7 7.8 0.00 0.00 0.00 33 1016.8
20260504204035 69 355 4.3 7.8 0.00 0.00 0.00 33 1016.9
20260504203535 70 337 0.9 5.2 0.00 0.00 0.00 34 1016.9
20260504203035 69 41 0.9 5.2 0.00 0.00 0.00 36 1016.9
20260504202532 69 350 0.0 7.0 0.00 0.00 0.00 36 1016.9
20260504202032 68 71 0.9 7.0 0.00 0.00 0.00 36 1016.9
20260504201531 68 321 0.9 6.1 0.00 0.00 0.00 35 1017.0
20260504201030 68 313 1.7 6.1 0.00 0.00 0.00 36 1017.0
20260504200530 68 316 1.7 5.2 0.00 0.00 0.00 35 1017.1
20260504200028 67 271 1.7 9.6 0.00 0.00 0.00 36 1017.1
20260504195527 67 341 2.6 9.6 0.00 0.00 0.00 36 1017.1
20260504195027 67 284 2.6 7.8 0.00 0.00 0.00 36 1017.1
20260504194541 67 323 4.3 7.8 0.00 0.00 0.00 36 1017.2
20260504194027 67 339 1.7 6.1 0.00 0.00 0.00 36 1017.2
20260504193528 67 309 3.5 6.1 0.00 0.00 0.00 36 1017.2
20260504193029 67 332 0.9 6.1 0.00 0.00 0.00 38 1017.2
20260504192525 66 354 2.6 5.2 0.00 0.00 0.00 38 1017.3
20260504192027 66 300 1.7 5.2 0.00 0.00 0.00 38 1017.3
20260504191526 66 305 0.9 3.5 0.00 0.00 0.00 39 1017.4
20260504191021 65 360 0.9 7.8 0.00 0.00 0.00 40 1017.5
20260504190523 65 346 3.5 7.8 0.00 0.00 0.00 39 1017.6
20260504190020 64 284 1.7 6.1 0.00 0.00 0.00 40 1017.5
20260504185521 64 327 0.0 7.8 0.00 0.00 0.00 41 1017.6
20260504185016 63 324 1.7 7.8 0.00 0.00 0.00 42 1017.7
20260504184514 63 294 2.6 7.0 0.00 0.00 0.00 43 1017.7
20260504184014 62 289 1.7 9.6 0.00 0.00 0.00 43 1017.7
20260504183512 62 306 3.5 9.6 0.00 0.00 0.00 44 1017.8
20260504183010 61 252 0.9 6.1 0.00 0.00 0.00 45 1017.8
20260504182509 61 294 1.7 6.1 0.00 0.00 0.00 45 1017.8
20260504182008 61 323 0.9 6.1 0.00 0.00 0.00 45 1017.9
20260504181508 60 313 1.7 6.1 0.00 0.00 0.00 45 1017.9
20260504181008 60 275 0.0 4.3 0.00 0.00 0.00 47 1017.9
20260504180505 60 339 0.0 4.3 0.00 0.00 0.00 47 1017.9
20260504180005 59 326 1.7 4.3 0.00 0.00 0.00 48 1018.0
20260504175502 59 327 0.0 2.6 0.00 0.00 0.00 49 1018.0
20260504175003 59 294 0.0 4.3 0.00 0.00 0.00 49 1017.9
20260504174601 58 294 0.9 4.3 0.00 0.00 0.00 49 1017.9
20260504174059 58 311 0.9 5.2 0.00 0.00 0.00 50 1017.9
20260504173559 57 344 1.7 5.2 0.00 0.00 0.00 51 1017.9
20260504173114 57 323 0.0 4.3 0.00 0.00 0.00 51 1018.1
20260504172555 56 294 0.0 3.5 0.00 0.00 0.00 52 1018.1
20260504172054 56 294 0.0 3.5 0.00 0.00 0.00 54 1018.1
20260504171553 56 113 0.0 6.1 0.00 0.00 0.00 54 1018.1
20260504171053 55 9 0.0 6.1 0.00 0.00 0.00 53 1018.1
20260504170550 55 320 0.9 4.3 0.00 0.00 0.00 54 1018.1
20260504151033 41 324 0.0 2.6 0.00 0.00 0.00 88 1018.5
20260504150531 40 324 0.0 0.0 0.00 0.00 0.00 90 1018.6
20260504141031 36 324 0.0 0.0 0.00 0.00 0.00 88 1018.4
20260504140526 36 324 0.0 0.0 0.00 0.00 0.00 89 1018.3
20260504130521 36 324 0.0 0.0 0.00 0.00 0.00 86 1018.2
20260504110504 38 324 0.0 0.0 0.00 0.00 0.00 82 1017.5
20260504100553 41 324 0.0 0.0 0.00 0.00 0.00 79 1016.9